Notices

What's New in latest Release from April 7th, 2021:

- Updated Glossary, including Speed of Maximum Gust, and Total Hourly Precipitation

- Updated national and regional climate services offices contacts and prices information

- Addition of station inventory lists for 1981-2010, 1971-2000, and 1961-1990 Normals.

If you haven't already, please take our survey and provide feedback about our website: https://eccc.sondage-survey.ca/f/LanguageSelection.aspx?s=442ca660-fcf1-47c0-95a9-59707d6fd709

Hourly Data Report for August 10, 2017

TORONTO CITY
ONTARIO

43°40'00.000" N
79°24'00.000" W
112.50 m
6158355
71508
XTO

Download Data

Hourly Data (August 2017)
Hourly Data Report for August 10, 2017
TIME
LST
Temp Definition
°C
Dew Point Definition
°C
Rel Hum Definition
%
Precip. Amount Definition
mm

Wind Dir Definition
10's deg

Wind Spd Definition
km/h
Visibility Definition
km
Stn Press Definition
kPa
Hmdx Definition


Wind Chill Definition


Weather Definition


00:00 19.2 14.6 75 0.0 LegendMM LegendMM   100.82     LegendNANA
01:00 19.3 14.3 73 0.0 LegendMM LegendMM   100.82     LegendNANA
02:00 18.7 14.5 77 0.0 LegendMM LegendMM   100.80     LegendNANA
03:00 18.5 14.8 79 0.0 LegendMM LegendMM   100.80     LegendNANA
04:00 17.9 14.8 82 0.0 LegendMM LegendMM   100.79     LegendNANA
05:00 17.4 14.9 85 0.0 LegendMM LegendMM   100.82     LegendNANA
06:00 18.0 14.4 80 0.0 LegendMM LegendMM   100.83     LegendNANA
07:00 19.6 15.1 76 0.0 LegendMM LegendMM   100.85     LegendNANA
08:00 21.9 14.5 63 0.0 LegendMM LegendMM   100.86 26   LegendNANA
09:00 22.4 17.3 73 0.0 LegendMM LegendMM   100.84 28   LegendNANA
10:00 23.8 17.7 69 0.0 LegendMM LegendMM   100.81 30   LegendNANA
11:00 24.1 17.5 66 0.0 LegendMM LegendMM   100.81 30   LegendNANA
12:00 24.9 16.8 61 0.0 LegendMM LegendMM   100.79 30   LegendNANA
13:00 26.6 15.9 52 0.0 LegendMM LegendMM   100.74 31   LegendNANA
14:00 26.2 14.5 49 0.0 LegendMM LegendMM   100.71 30   LegendNANA
15:00 26.4 14.2 47 0.0 LegendMM LegendMM   100.63 30   LegendNANA
16:00 26.2 15.4 51 0.0 LegendMM LegendMM   100.59 30   LegendNANA
17:00 23.7 16.4 64 0.0 LegendMM LegendMM   100.53 29   LegendNANA
18:00 23.0 16.7 67 0.0 LegendMM LegendMM   100.50 28   LegendNANA
19:00 22.7 16.0 66 0.0 LegendMM LegendMM   100.48 27   LegendNANA
20:00 22.6 14.8 62 0.0 LegendMM LegendMM   100.49 26   LegendNANA
21:00 22.7 14.9 62 0.0 LegendMM LegendMM   100.48 27   LegendNANA
22:00 22.2 16.3 69 0.0 LegendMM LegendMM   100.48 27   LegendNANA
23:00 21.9 16.6 72 0.0 LegendMM LegendMM   100.44 27   LegendNANA

Notes on Data Quality.

Legend

  • E = Estimated
  • M = Missing
  • NA = Not Available*
  • [empty] = Indicates an unobserved value
Date modified: